This is the latest recevied weather packets stored in our database for station/object N8QF. If no packets are shown the sender has not sent any weather packets the latest 10 day(s).
| Time | Temp. | Humidity | Pressure | Rain* | Wind** | Luminosity | Snow |
|---|---|---|---|---|---|---|---|
| 1778049185 | 8.89° C | 95% | 1006.7 hPa | 8.89 mm | - | - | - |
| 1778048884 | 8.89° C | 95% | 1006.5 hPa | 8.89 mm | - | - | - |
| 1778048584 | 8.89° C | 95% | 1006.2 hPa | 8.89 mm | - | - | - |
| 1778048284 | 8.89° C | 95% | 1006.2 hPa | 8.89 mm | - | - | - |
| 1778047984 | 8.89° C | 95% | 1006.4 hPa | 8.64 mm | - | - | - |
| 1778047683 | 8.89° C | 95% | 1006.5 hPa | 8.38 mm | - | - | - |
| 1778047383 | 8.89° C | 95% | 1006.4 hPa | 8.13 mm | - | - | - |
| 1778047083 | 8.89° C | 95% | 1006.4 hPa | 7.87 mm | - | - | - |
| 1778046781 | 8.89° C | 95% | 1006.4 hPa | 7.87 mm | - | - | - |
| 1778046481 | 8.89° C | 95% | 1006.3 hPa | 7.62 mm | - | - | - |
| 1778046180 | 8.89° C | 95% | 1006.7 hPa | 7.11 mm | - | - | - |
| 1778045880 | 8.89° C | 95% | 1006.6 hPa | 7.11 mm | - | - | - |
| 1778045580 | 8.89° C | 95% | 1006.5 hPa | 6.86 mm | - | - | - |
| 1778045280 | 8.89° C | 95% | 1006.3 hPa | 6.6 mm | - | - | - |
| 1778044980 | 9.44° C | 95% | 1006.9 hPa | 6.35 mm | - | - | - |
| 1778044679 | 9.44° C | 95% | 1006.6 hPa | 5.84 mm | - | - | - |
| 1778044379 | 9.44° C | 95% | 1006.5 hPa | 5.33 mm | - | - | - |
| 1778044079 | 10° C | 95% | 1006.2 hPa | 4.83 mm | - | - | - |
| 1778043779 | 10° C | 95% | 1006.3 hPa | 4.06 mm | - | - | - |
| 1778043478 | 10.56° C | 95% | 1006.3 hPa | 3.3 mm | - | - | - |
| 1778043178 | 10° C | 95% | 1006.3 hPa | 2.54 mm | - | - | - |
| 1778042878 | 10° C | 95% | 1006.1 hPa | 2.54 mm | - | - | - |
| 1778042577 | 10° C | 95% | 1006.2 hPa | 2.54 mm | - | - | - |
| 1778042277 | 10.56° C | 95% | 1006.3 hPa | 2.03 mm | - | - | - |
| 1778041974 | 10° C | 95% | 1006.5 hPa | 1.52 mm | - | - | - |
* Rain since midnight (hover to see other rain measurements)
** Current wind speed in m/s (hover to see current wind gust speed)